Temp
-9 -9 -9 -9 -9 -9 -9 -9 -9 -9 -9 -9 -9 -9 -9 -9 -8 -8 -8 -9 -8 -8 -8 -9 -9 -10 -10 -10 -10 -10 -9 -9 -9 -9 -9 -9 -8 -8 -8 -7 -7 -7 -7 -8 -8
-9 -10 -9 -9 -9 -9 -9 -9 -9 -9 -10 -9 -9 -9 -9 -9 -9 -9 -9 -9 -8 -8 -8 -9 -9 -9 -10 -10 -10 -10 -10 -9 -9 -8 -9 -9 -8 -8 -8 -7 -7 -7 -7 -7 -7
-10 -10 -10 -10 -10 -11 -10 -10 -10 -10 -10 -10 -10 -10 -10 -10 -9 -10 -9 -9 -9 -9 -9 -9 -9 -9 -9 -10 -10 -10 -10 -9 -9 -9 -9 -9 -8 -8 -8 -8 -7 -7 -7 -7 -7
-11 -11 -12 -12 -13 -13 -13 -13 -13 -12 -12 -11 -11 -11 -10 -10 -10 -10 -9 -9 -9 -9 -9 -9 -9 -10 -9 -9 -10 -10 -10 -9 -9 -9 -8 -8 -8 -8 -8 -8 -7 -7 -7 -7 -7
-12 -13 -14 -14 -15 -15 -15 -15 -15 -14 -14 -14 -13 -12 -12 -11 -10 -10 -10 -10 -10 -9 -9 -9 -9 -10 -10 -10 -10 -10 -10 -9 -9 -9 -9 -8 -8 -8 -8 -8 -7 -7 -7 -7 -7
-14 -15 -15 -16 -16 -16 -16 -16 -16 -16 -15 -15 -14 -13 -12 -11 -11 -11 -10 -10 -10 -10 -9 -10 -10 -10 -10 -10 -10 -10 -10 -9 -9 -9 -9 -9 -8 -8 -8 -8 -8 -8 -7 -7 -7
-15 -15 -16 -17 -17 -18 -18 -18 -18 -17 -16 -16 -15 -14 -12 -13 -12 -11 -11 -11 -10 -10 -10 -10 -10 -10 -10 -10 -10 -10 -10 -10 -9 -9 -9 -8 -8 -8 -8 -8 -7 -8 -7 -7 -7
-15 -16 -17 -18 -18 -18 -19 -19 -19 -18 -18 -17 -16 -15 -14 -13 -13 -12 -11 -11 -11 -10 -10 -10 -10 -10 -10 -10 -11 -10 -10 -10 -10 -9 -9 -8 -8 -8 -8 -8 -8 -8 -8 -8 -8
-15 -16 -17 -18 -19 -19 -19 -19 -19 -19 -18 -17 -16 -16 -16 -14 -13 -13 -12 -12 -11 -11 -10 -10 -10 -11 -11 -11 -11 -10 -10 -10 -10 -9 -9 -8 -9 -9 -8 -8 -8 -8 -8 -8 -8
-16 -17 -18 -18 -19 -19 -19 -19 -19 -19 -18 -17 -17 -16 -16 -15 -14 -13 -12 -12 -12 -11 -11 -11 -11 -11 -10 -11 -10 -10 -10 -10 -10 -9 -9 -8 -9 -9 -9 -9 -9 -9 -8 -8 -8
-16 -17 -18 -19 -19 -19 -19 -19 -19 -19 -18 -18 -17 -17 -16 -16 -15 -14 -13 -12 -12 -12 -11 -11 -11 -10 -11 -10 -11 -10 -10 -10 -10 -9 -9 -9 -9 -10 -9 -9 -9 -9 -9 -9 -9
-16 -17 -18 -19 -19 -19 -19 -19 -19 -18 -18 -18 -17 -17 -16 -15 -14 -14 -13 -13 -12 -12 -12 -11 -11 -11 -11 -11 -10 -10 -10 -10 -9 -9 -9 -9 -10 -10 -10 -10 -9 -9 -9 -9 -10
-16 -17 -17 -18 -19 -19 -19 -19 -19 -18 -18 -18 -17 -16 -16 -15 -14 -14 -13 -13 -12 -12 -12 -12 -12 -11 -11 -11 -10 -10 -10 -10 -9 -9 -9 -9 -9 -10 -10 -10 -10 -10 -10 -10 -10
-17 -17 -17 -18 -18 -19 -19 -19 -18 -18 -18 -17 -17 -16 -16 -15 -14 -14 -14 -13 -13 -12 -12 -12 -11 -11 -11 -11 -11 -10 -10 -10 -10 -10 -10 -10 -9 -10 -10 -10 -10 -10 -10 -10 -10
-17 -17 -17 -18 -18 -18 -18 -18 -18 -18 -17 -17 -16 -16 -16 -15 -15 -14 -14 -14 -13 -13 -12 -12 -12 -12 -12 -11 -11 -11 -11 -11 -10 -10 -10 -10 -10 -10 -10 -10 -10 -10 -10 -10 -11
-17 -17 -17 -17 -18 -18 -18 -18 -17 -17 -17 -17 -16 -16 -15 -15 -14 -14 -14 -14 -13 -13 -12 -12 -12 -12 -12 -11 -11 -11 -11 -11 -11 -10 -10 -11 -10 -10 -11 -11 -11 -11 -11 -11 -11
-16 -17 -17 -17 -18 -17 -17 -17 -16 -17 -17 -16 -16 -16 -15 -15 -14 -14 -14 -13 -13 -13 -12 -12 -12 -12 -12 -12 -12 -12 -12 -11 -11 -11 -11 -11 -11 -11 -11 -11 -12 -12 -12 -12 -12
-16 -17 -17 -17 -17 -17 -17 -17 -17 -16 -16 -16 -16 -15 -15 -15 -15 -14 -14 -14 -13 -13 -13 -13 -13 -12 -12 -12 -12 -12 -12 -12 -11 -11 -11 -11 -11 -11 -12 -12 -12 -12 -12 -13 -13
-16 -16 -16 -17 -17 -17 -16 -17 -16 -16 -16 -16 -15 -15 -15 -15 -15 -15 -14 -14 -13 -13 -13 -13 -13 -13 -12 -12 -12 -12 -12 -12 -12 -11 -11 -12 -12 -12 -12 -12 -13 -13 -13 -13 -13
-15 -16 -16 -16 -17 -16 -16 -16 -16 -16 -16 -16 -15 -15 -15 -15 -14 -14 -14 -14 -14 -13 -13 -13 -13 -12 -12 -12 -12 -12 -12 -12 -12 -12 -12 -12 -12 -13 -13 -13 -13 -13 -14 -14 -14
-15 -15 -16 -16 -16 -16 -17 -16 -16 -16 -16 -15 -15 -15 -15 -14 -14 -14 -14 -14 -13 -13 -13 -13 -13 -13 -12 -12 -12 -12 -13 -12 -13 -13 -13 -13 -13 -13 -13 -14 -14 -14 -14 -14 -14
-15 -15 -16 -16 -16 -16 -16 -16 -16 -16 -16 -16 -16 -15 -15 -14 -14 -14 -14 -14 -13 -13 -13 -13 -13 -13 -13 -13 -13 -13 -13 -13 -13 -13 -13 -13 -13 -14 -14 -14 -14 -14 -14 -14 -15
-15 -15 -15 -16 -16 -16 -16 -16 -16 -16 -16 -15 -15 -15 -15 -14 -14 -14 -14 -14 -13 -13 -13 -13 -13 -13 -13 -13 -13 -13 -13 -13 -13 -14 -14 -14 -14 -14 -14 -14 -14 -14 -15 -15 -15
-15 -15 -15 -15 -16 -16 -16 -16 -16 -15 -15 -15 -15 -14 -14 -14 -14 -14 -14 -13 -13 -13 -13 -13 -13 -13 -13 -13 -13 -14 -14 -14 -14 -14 -14 -14 -15 -15 -14 -15 -15 -15 -15 -16 -16
-15 -15 -15 -15 -15 -15 -15 -16 -16 -15 -15 -15 -15 -14 -14 -14 -14 -14 -14 -14 -14 -14 -14 -14 -14 -14 -14 -14 -14 -14 -14 -14 -14 -14 -14 -14 -15 -15 -15 -15 -15 -16 -16 -17 -17
-15 -15 -15 -15 -15 -15 -15 -15 -15 -15 -15 -15 -15 -15 -14 -14 -14 -14 -14 -14 -14 -14 -14 -14 -14 -14 -14 -14 -14 -14 -15 -14 -14 -15 -14 -15 -15 -15 -16 -16 -17 -17 -17 -18 -18
-15 -15 -15 -15 -15 -15 -15 -15 -15 -15 -15 -15 -15 -15 -15 -14 -14 -14 -14 -14 -14 -14 -14 -14 -14 -14 -14 -14 -14 -14 -14 -14 -14 -15 -15 -15 -16 -16 -17 -17 -17 -18 -18 -18 -18
Height
5799 5798 5797 5796 5796 5796 5798 5799 5802 5805 5808 5813 5817 5823 5829 5834 5840 5846 5853 5858 5862 5866 5871 5875 5879 5881 5884 5887 5888 5890 5895 5897 5897 5898 5898 5899 5899 5898 5898 5898 5899 5899 5900 5901 5900
5788 5786 5784 5783 5782 5782 5783 5784 5787 5791 5795 5799 5806 5813 5819 5825 5831 5839 5845 5850 5856 5860 5865 5869 5873 5877 5880 5882 5884 5887 5890 5893 5894 5894 5895 5896 5896 5895 5895 5895 5895 5895 5896 5897 5896
5777 5774 5770 5767 5765 5764 5765 5767 5770 5773 5779 5784 5792 5800 5808 5815 5823 5831 5835 5842 5848 5854 5859 5864 5868 5872 5876 5878 5881 5883 5886 5889 5890 5890 5891 5892 5892 5892 5892 5891 5890 5890 5891 5892 5892
5764 5760 5755 5751 5748 5745 5745 5747 5751 5755 5760 5767 5777 5787 5796 5805 5815 5821 5826 5834 5841 5846 5853 5859 5864 5867 5872 5875 5877 5880 5882 5885 5885 5887 5888 5888 5888 5889 5889 5887 5886 5886 5886 5887 5887
5752 5746 5741 5736 5732 5730 5729 5731 5734 5738 5744 5752 5761 5772 5784 5795 5804 5812 5818 5826 5833 5840 5847 5854 5860 5863 5867 5871 5873 5875 5879 5881 5881 5882 5883 5884 5884 5884 5883 5882 5882 5882 5882 5882 5882
5741 5735 5728 5720 5714 5713 5712 5715 5719 5724 5731 5739 5748 5759 5773 5787 5792 5802 5811 5819 5827 5834 5841 5848 5854 5858 5861 5864 5869 5872 5874 5877 5878 5878 5878 5879 5881 5880 5878 5877 5877 5877 5877 5877 5877
5732 5724 5715 5705 5700 5698 5698 5701 5705 5711 5719 5728 5738 5749 5764 5776 5784 5794 5804 5813 5821 5829 5836 5842 5849 5854 5856 5859 5864 5868 5870 5873 5875 5874 5874 5874 5877 5873 5874 5873 5873 5873 5872 5872 5871
5723 5714 5703 5695 5690 5688 5688 5692 5697 5704 5712 5721 5732 5744 5755 5764 5778 5788 5797 5806 5815 5823 5830 5836 5844 5850 5853 5855 5858 5863 5866 5869 5870 5870 5871 5871 5873 5869 5868 5868 5868 5867 5866 5865 5864
5716 5706 5696 5688 5685 5683 5684 5687 5693 5700 5707 5716 5728 5738 5746 5760 5772 5782 5792 5801 5809 5818 5825 5832 5839 5845 5848 5851 5855 5858 5862 5865 5865 5865 5865 5867 5868 5864 5863 5862 5862 5861 5860 5859 5858
5713 5702 5693 5686 5682 5681 5683 5687 5694 5700 5707 5715 5725 5735 5746 5757 5768 5778 5787 5797 5806 5813 5821 5828 5834 5839 5843 5847 5851 5854 5856 5858 5861 5860 5859 5861 5862 5859 5858 5858 5856 5855 5854 5853 5851
5712 5702 5693 5687 5683 5683 5686 5691 5697 5702 5708 5716 5725 5734 5745 5754 5766 5776 5785 5794 5802 5810 5817 5824 5830 5835 5842 5844 5847 5849 5851 5852 5854 5853 5854 5854 5857 5854 5851 5852 5850 5849 5849 5848 5845
5714 5705 5697 5691 5687 5688 5691 5695 5700 5705 5712 5719 5727 5737 5746 5755 5766 5775 5784 5793 5800 5807 5814 5821 5826 5831 5835 5839 5842 5844 5846 5847 5847 5846 5848 5849 5852 5849 5846 5844 5844 5843 5842 5840 5839
5718 5711 5704 5697 5695 5695 5697 5700 5705 5710 5718 5725 5732 5741 5749 5758 5765 5774 5783 5791 5798 5805 5811 5817 5823 5827 5830 5834 5837 5838 5840 5841 5842 5841 5842 5843 5845 5844 5841 5839 5838 5836 5834 5833 5831
5723 5717 5712 5707 5705 5704 5706 5709 5714 5719 5725 5732 5738 5745 5752 5760 5767 5775 5782 5790 5796 5802 5807 5813 5818 5821 5825 5829 5831 5833 5835 5836 5837 5836 5836 5837 5837 5839 5835 5833 5831 5829 5827 5825 5823
5728 5724 5720 5717 5716 5716 5717 5719 5723 5729 5733 5739 5744 5749 5755 5762 5769 5775 5781 5788 5793 5799 5806 5811 5814 5817 5820 5824 5827 5829 5829 5830 5830 5830 5830 5832 5828 5831 5829 5826 5824 5822 5820 5818 5816
5734 5730 5727 5725 5724 5725 5726 5729 5731 5737 5739 5743 5747 5752 5758 5764 5769 5775 5782 5787 5792 5797 5802 5806 5809 5813 5816 5819 5821 5823 5824 5824 5825 5825 5825 5825 5824 5822 5821 5819 5817 5815 5813 5811 5810
5738 5736 5733 5731 5732 5732 5733 5734 5736 5740 5743 5748 5751 5755 5760 5766 5771 5776 5782 5786 5791 5796 5800 5804 5806 5809 5812 5815 5817 5818 5820 5819 5819 5819 5819 5818 5817 5816 5814 5812 5810 5808 5806 5805 5803
5741 5739 5738 5736 5738 5738 5737 5737 5742 5744 5747 5750 5754 5758 5762 5768 5772 5776 5781 5786 5790 5794 5797 5800 5804 5806 5809 5811 5812 5813 5815 5814 5812 5813 5813 5811 5810 5809 5807 5805 5804 5802 5800 5797 5795
5742 5742 5741 5740 5741 5742 5743 5745 5747 5749 5751 5754 5756 5758 5762 5766 5774 5777 5781 5785 5788 5792 5795 5798 5800 5803 5805 5806 5809 5809 5809 5809 5807 5806 5805 5805 5804 5802 5801 5799 5797 5795 5792 5790 5787
5742 5742 5743 5743 5744 5745 5747 5748 5750 5752 5754 5755 5759 5762 5766 5769 5774 5777 5781 5784 5787 5790 5792 5795 5798 5800 5801 5802 5803 5803 5804 5803 5802 5799 5799 5798 5797 5795 5794 5792 5789 5787 5784 5782 5778
5742 5743 5744 5746 5747 5748 5749 5751 5753 5755 5757 5759 5762 5765 5767 5770 5774 5777 5781 5784 5786 5788 5790 5792 5795 5797 5797 5798 5798 5798 5798 5797 5796 5795 5792 5792 5791 5789 5786 5784 5781 5778 5775 5772 5768
5742 5743 5745 5746 5749 5750 5752 5754 5755 5757 5759 5761 5763 5765 5768 5770 5773 5776 5778 5781 5783 5785 5787 5789 5790 5791 5792 5792 5792 5792 5792 5791 5790 5790 5787 5785 5785 5782 5778 5775 5772 5769 5766 5762 5758
5742 5742 5744 5746 5748 5751 5753 5754 5756 5758 5760 5762 5763 5766 5768 5770 5773 5774 5776 5778 5780 5782 5783 5784 5786 5786 5787 5788 5787 5786 5786 5785 5784 5782 5782 5778 5777 5772 5769 5767 5764 5760 5756 5751 5747
5741 5742 5743 5744 5747 5749 5751 5753 5755 5757 5759 5761 5763 5764 5766 5768 5770 5772 5773 5775 5776 5777 5779 5780 5781 5781 5783 5782 5782 5781 5780 5779 5777 5776 5773 5773 5767 5763 5759 5756 5752 5748 5743 5739 5734
5738 5740 5742 5743 5744 5746 5749 5751 5753 5755 5757 5759 5761 5762 5764 5765 5767 5768 5769 5771 5772 5773 5775 5776 5777 5777 5777 5777 5776 5776 5775 5773 5771 5768 5765 5764 5760 5755 5751 5746 5741 5736 5732 5728 5723
5735 5737 5739 5740 5742 5745 5747 5750 5752 5754 5756 5757 5759 5760 5761 5763 5764 5765 5767 5768 5769 5771 5771 5772 5773 5772 5772 5772 5771 5771 5768 5765 5763 5760 5757 5753 5750 5745 5740 5736 5732 5728 5723 5718 5712
5730 5732 5734 5737 5740 5742 5745 5747 5749 5751 5753 5754 5756 5757 5759 5760 5762 5763 5764 5765 5766 5767 5768 5768 5768 5768 5768 5766 5764 5764 5761 5758 5755 5751 5748 5744 5740 5735 5731 5726 5722 5718 5712 5707 5700
Wind_Speed
43 44 45 45 46 46 47 48 48 48 48 48 48 47 46 45 45 44 41 39 38 37 37 36 36 35 35 34 32 30 24 22 22 21 20 18 19 19 19 19 19 18 17 16 16
42 43 45 47 50 52 54 54 55 54 54 53 51 50 48 47 47 44 43 42 40 39 39 38 37 35 36 34 33 30 26 22 23 23 21 20 20 22 21 21 20 19 17 15 15
41 45 49 53 56 58 60 61 61 62 63 60 57 55 52 50 47 42 47 46 43 41 40 38 37 36 35 34 32 30 27 23 24 23 22 20 21 21 21 22 21 19 17 15 14
45 50 52 52 53 54 54 55 57 60 61 62 62 59 56 53 49 46 48 48 46 43 41 38 37 37 33 33 31 29 25 23 23 23 20 20 20 19 20 22 22 20 19 16 16
45 44 45 47 49 49 50 49 50 52 55 55 55 59 57 56 51 48 48 48 47 44 42 39 38 38 37 32 31 29 24 22 23 22 21 19 19 19 21 23 22 21 19 19 19
38 41 45 48 47 47 49 50 50 50 50 48 48 52 57 55 53 49 47 48 47 45 42 38 40 40 38 35 32 29 28 22 22 24 25 23 18 18 23 24 23 22 21 22 22
37 42 43 38 40 40 38 39 41 44 43 41 42 48 53 55 53 49 47 47 47 45 43 41 39 39 37 33 28 24 27 21 20 24 25 23 17 23 24 23 23 23 24 24 25
38 37 35 30 29 30 29 28 29 31 32 34 39 45 50 55 52 49 47 47 47 44 43 41 37 38 34 31 27 29 29 25 19 23 24 23 17 25 26 24 23 23 25 27 29
34 32 25 22 17 18 19 22 25 28 30 33 38 43 47 52 50 49 47 46 45 44 43 40 36 37 36 36 29 32 26 23 22 24 25 22 17 25 27 27 25 26 26 28 29
30 27 17 12 12 13 15 20 18 20 24 31 36 38 43 45 46 46 45 44 43 42 41 37 37 37 37 29 28 30 27 32 25 25 26 22 18 24 26 25 27 28 29 29 30
26 22 12 4 2 9 18 17 17 19 24 30 34 37 41 41 42 44 42 41 41 40 38 36 36 34 30 28 26 26 26 21 24 28 26 24 16 21 27 24 27 28 28 29 31
23 21 11 6 11 14 16 17 19 24 28 31 34 37 37 38 39 39 38 38 38 37 36 35 33 31 30 28 26 25 24 25 28 27 27 24 17 21 25 28 28 29 29 30 31
20 19 16 12 12 15 18 23 26 30 31 33 33 35 35 35 36 36 35 35 34 34 33 33 32 30 28 29 28 26 28 29 30 27 28 25 19 18 25 28 29 30 32 32 32
18 17 19 20 22 25 26 28 28 28 30 30 31 31 32 32 32 32 32 32 32 33 33 33 32 31 30 29 29 27 26 27 27 27 27 25 26 19 26 29 30 31 32 32 32
16 16 18 21 24 24 25 26 24 22 26 28 28 30 30 30 29 30 30 29 30 29 30 29 27 26 25 26 26 23 22 22 23 24 25 22 28 24 26 28 30 31 30 30 30
11 10 15 20 20 21 23 21 18 16 17 23 24 25 27 29 27 28 27 27 28 28 30 29 27 24 23 23 22 21 21 22 24 25 27 24 26 29 28 27 27 28 28 28 29
7 7 12 17 16 18 18 20 17 12 17 21 22 24 26 25 24 24 27 27 25 27 26 24 22 22 22 21 21 22 22 24 26 25 26 27 27 27 27 27 27 28 28 28 30
2 3 11 15 13 15 13 16 13 10 15 19 18 18 24 23 24 23 26 24 24 22 21 20 19 18 17 19 20 20 21 23 28 27 27 27 28 27 27 26 26 27 29 30 30
6 2 8 13 13 16 11 12 11 7 13 13 9 19 15 19 18 20 18 16 17 18 18 14 14 14 16 18 19 20 23 24 27 28 28 27 26 27 27 27 28 29 30 32 33
4 6 9 14 17 12 13 12 11 10 11 9 9 8 9 10 16 14 15 15 14 13 13 13 14 15 16 19 20 22 23 24 25 29 28 28 28 28 28 29 31 32 32 34 36
4 7 10 12 15 15 15 16 13 12 11 9 10 10 10 10 12 12 12 13 12 12 13 14 14 15 17 19 20 21 22 24 26 27 29 29 29 28 30 31 33 34 36 38 41
4 8 11 13 16 13 13 13 13 11 11 10 9 9 11 12 14 14 14 13 12 12 13 14 14 16 18 19 20 22 22 24 26 27 28 30 30 30 31 34 36 39 41 43 46
6 8 10 13 15 16 14 13 11 10 10 10 11 12 12 13 13 12 12 12 12 12 13 14 15 16 17 18 19 21 22 24 25 26 26 30 31 34 37 40 42 44 46 47 48
10 7 8 13 16 17 17 15 13 12 12 11 12 12 13 13 13 12 12 12 12 12 13 14 15 16 17 18 19 20 21 23 26 28 31 32 36 39 43 44 45 46 47 46 45
17 12 11 13 17 19 18 16 15 14 12 12 11 11 11 10 10 10 11 11 11 12 13 13 14 16 17 18 20 22 24 27 30 33 36 37 39 41 43 44 44 44 43 42 42
24 19 16 16 17 16 15 15 14 12 11 9 8 8 8 8 8 9 9 9 10 11 12 14 15 18 19 22 25 26 29 32 35 37 39 40 40 40 39 39 39 40 40 42 45
24 22 21 19 17 17 17 16 13 12 11 9 8 8 8 8 8 9 9 10 12 13 15 18 20 23 23 26 29 31 32 35 36 36 37 37 37 37 37 37 39 42 45 48 51
Wind_Direction
286 282 278 274 270 267 264 261 256 253 250 246 243 240 237 235 233 228 227 225 225 227 227 226 226 227 231 237 244 251 249 248 249 252 260 267 273 272 270 277 279 279 277 272 269
286 282 279 276 273 269 264 259 254 248 247 245 241 239 234 231 230 226 222 223 223 225 226 225 227 230 232 236 242 248 251 245 249 252 257 264 267 275 280 281 282 280 274 268 261
289 286 283 279 275 270 265 259 253 248 243 240 237 235 231 228 227 219 220 220 220 221 224 224 227 230 236 241 242 247 250 249 247 252 258 262 265 270 277 281 282 280 279 270 261
292 289 287 283 279 273 267 260 253 248 246 242 235 229 226 223 222 217 218 217 217 218 221 222 223 230 238 246 248 248 250 250 253 255 254 255 262 268 275 278 279 280 279 278 274
299 296 292 286 278 270 263 257 251 245 241 238 233 227 220 218 217 216 216 215 216 215 217 218 222 226 231 241 247 250 253 251 255 262 263 263 267 275 274 273 278 278 276 276 274
306 304 303 295 280 268 261 254 249 246 241 235 229 219 218 214 214 212 214 214 214 214 215 215 219 223 233 231 241 249 257 253 258 268 270 272 273 271 268 274 276 275 274 273 273
312 312 308 290 277 269 261 250 244 239 238 232 223 215 210 211 211 209 210 212 213 213 212 213 217 224 233 233 233 255 247 253 261 262 267 272 277 272 272 273 275 273 272 273 275
321 314 310 290 279 270 258 244 235 228 221 219 215 208 202 205 206 207 206 208 210 211 213 213 215 223 231 239 240 242 252 267 260 261 262 265 267 270 274 277 277 275 275 277 278
330 322 314 293 270 262 245 221 215 214 211 204 203 201 201 198 201 203 203 205 207 209 212 212 211 220 228 233 233 241 251 248 268 266 264 264 263 264 269 273 278 280 279 278 280
339 333 325 307 257 249 212 201 199 200 199 195 194 193 192 193 197 200 200 203 204 207 212 211 211 219 227 241 239 252 256 245 264 267 269 269 264 268 269 274 276 278 280 283 286
353 350 346 358 179 180 177 184 181 181 177 179 179 183 185 187 191 196 196 201 203 206 210 210 212 221 226 234 237 247 246 245 262 269 272 273 270 271 274 273 272 275 280 285 286
9 10 14 78 122 139 151 159 162 161 161 166 171 177 179 182 187 191 194 198 201 205 208 210 213 216 225 230 230 241 251 258 259 272 276 275 273 267 273 275 277 281 283 283 285
21 32 48 75 108 127 138 143 145 148 154 161 167 172 173 180 184 185 192 195 199 204 207 210 210 213 217 227 241 246 251 261 267 270 273 274 271 269 270 275 279 283 284 286 286
35 51 68 85 102 113 122 129 136 145 153 156 167 168 170 178 181 181 190 194 199 202 206 211 213 218 225 236 244 248 254 259 264 267 271 274 274 271 273 278 281 283 286 287 287
52 65 83 97 104 111 120 125 133 141 152 161 166 166 168 173 179 182 186 194 201 205 210 213 215 221 227 236 244 249 252 258 264 268 270 278 281 285 280 282 284 286 286 285 284
51 61 85 98 105 115 121 128 128 142 158 163 165 167 173 174 177 186 190 195 201 205 209 210 212 218 226 233 240 246 254 260 265 270 275 282 284 289 291 289 286 285 284 283 283
42 31 103 102 113 118 129 141 104 134 151 163 166 169 172 173 174 188 195 201 205 209 213 213 216 223 230 237 245 252 259 267 268 272 281 285 286 287 289 288 288 288 288 288 288
305 35 127 118 127 127 143 88 107 98 159 161 164 177 176 187 186 191 198 197 202 206 210 215 222 229 237 244 252 258 265 272 278 283 284 286 286 289 290 291 292 292 292 291 290
246 226 158 138 139 140 150 118 128 114 153 172 194 158 207 164 186 201 200 199 201 206 213 217 221 230 239 248 257 264 270 274 278 281 284 286 289 291 293 295 293 292 292 292 292
231 210 189 160 154 150 123 124 117 122 142 140 153 157 172 176 183 192 198 203 207 209 215 221 230 239 248 255 262 267 273 276 279 283 286 290 292 293 294 293 292 292 293 293 292
189 200 183 183 167 154 147 137 126 131 138 147 158 171 175 179 189 198 202 208 212 219 227 237 243 249 257 262 267 272 277 278 281 285 288 291 291 296 294 293 292 293 292 292 292
183 188 190 191 179 167 157 151 146 147 151 152 163 174 187 195 203 209 216 220 227 234 243 251 257 262 266 270 273 275 277 279 281 285 288 292 293 296 293 292 292 292 293 293 292
178 189 193 196 192 192 180 174 176 182 184 188 190 199 207 213 218 224 231 237 242 247 251 257 261 263 266 271 274 276 278 280 284 287 291 289 295 292 290 291 292 293 293 293 294
212 208 202 197 197 202 208 211 216 216 212 210 212 216 220 225 228 231 237 241 246 250 254 258 262 265 269 273 275 278 281 284 287 289 288 293 291 294 295 296 296 295 295 296 297
224 221 216 200 196 200 205 208 214 217 222 226 224 225 224 227 229 232 238 242 246 252 256 260 265 269 273 276 279 283 287 288 289 291 292 294 295 293 295 295 295 295 296 297 299
229 226 219 204 201 203 206 209 217 222 231 233 231 231 230 230 232 238 242 246 252 257 262 267 270 275 281 284 285 289 292 293 294 295 297 297 297 296 293 292 293 296 299 298 299
221 218 212 208 209 213 219 218 221 224 223 222 223 225 229 234 240 246 251 257 263 268 273 277 280 283 286 290 293 296 294 295 297 298 299 297 295 295 295 297 298 298 298 300 302